"datetime","temp","dp","rain_mm","uv","solar","mb","wind_mph","gust_mph","windchill","rh"
"2022-02-06 00:00:00",9.7,7.8,0.0,0.0,0,1012.0,2,3,"",88
"2022-02-06 00:01:00",9.7,7.8,0.0,0.0,0,1012.0,2,4,9.0,88
"2022-02-06 00:02:00",9.7,7.8,0.0,0.0,0,1012.0,2,4,9.0,88
"2022-02-06 00:03:00",9.7,7.8,0.0,0.0,0,1012.0,2,5,8.6,88
"2022-02-06 00:04:00",9.7,7.8,0.0,0.0,0,1012.0,3,5,8.6,88
"2022-02-06 00:05:00",9.7,7.8,0.0,0.0,0,1012.1,3,5,8.6,88
"2022-02-06 00:06:00",9.7,7.8,0.0,0.0,0,1012.0,2,5,8.6,88
"2022-02-06 00:07:00",9.7,7.8,0.0,0.0,0,1012.0,2,4,9.0,88
"2022-02-06 00:08:00",9.7,7.8,0.0,0.0,0,1012.0,1,3,"",88
"2022-02-06 00:09:00",9.7,7.8,0.0,0.0,0,1011.9,3,5,8.6,88
"2022-02-06 00:10:00",9.7,7.8,0.0,0.0,0,1011.9,2,6,8.3,88
"2022-02-06 00:11:00",9.7,7.8,0.0,0.0,0,1011.9,4,12,7.1,88
"2022-02-06 00:12:00",9.7,7.8,0.0,0.0,0,1011.8,2,5,8.6,88
"2022-02-06 00:13:00",9.7,7.8,0.0,0.0,0,1011.6,5,12,7.1,88
"2022-02-06 00:14:00",9.7,7.8,0.0,0.0,0,1011.8,3,7,8.1,88
"2022-02-06 00:15:00",9.7,7.8,0.0,0.0,0,1011.7,2,6,8.3,88
"2022-02-06 00:16:00",9.7,7.8,0.0,0.0,0,1011.7,1,4,9.0,88
"2022-02-06 00:17:00",9.7,7.8,0.0,0.0,0,1011.8,5,11,7.1,88
"2022-02-06 00:18:00",9.7,7.8,0.0,0.0,0,1011.8,2,5,8.6,88
"2022-02-06 00:19:00",9.7,7.8,0.0,0.0,0,1011.8,4,7,8.1,88
"2022-02-06 00:20:00",9.7,7.8,0.0,0.0,0,1011.7,3,4,9.0,88
"2022-02-06 00:21:00",9.7,7.8,0.0,0.0,0,1011.7,3,5,8.5,88
"2022-02-06 00:22:00",9.7,7.8,0.0,0.0,0,1011.6,2,4,8.9,88
"2022-02-06 00:23:00",9.7,7.8,0.0,0.0,0,1011.6,2,4,8.9,88
"2022-02-06 00:24:00",9.7,7.8,0.0,0.0,0,1011.6,2,3,"",88
"2022-02-06 00:25:00",9.7,7.8,0.0,0.0,0,1011.6,2,4,8.9,88
"2022-02-06 00:26:00",9.7,7.8,0.0,0.0,0,1011.5,3,8,7.7,88
"2022-02-06 00:27:00",9.6,7.7,0.0,0.0,0,1011.5,2,4,9.0,88
"2022-02-06 00:28:00",9.6,7.7,0.0,0.0,0,1011.5,3,8,7.8,88
"2022-02-06 00:29:00",9.7,7.8,0.0,0.0,0,1011.5,2,4,8.9,88
"2022-02-06 00:30:00",9.6,7.7,0.0,0.0,0,1011.4,2,3,"",88
"2022-02-06 00:31:00",9.6,7.7,0.0,0.0,0,1011.5,1,3,"",88
"2022-02-06 00:32:00",9.6,7.7,0.0,0.0,0,1011.4,2,4,8.9,88
"2022-02-06 00:33:00",9.6,7.7,0.0,0.0,0,1011.4,3,7,7.9,88
"2022-02-06 00:34:00",9.6,7.9,0.0,0.0,0,1011.4,3,6,8.2,89
"2022-02-06 00:35:00",9.6,7.9,0.0,0.0,0,1011.4,3,7,7.9,89
"2022-02-06 00:36:00",9.6,7.9,0.0,0.0,0,1011.3,3,6,8.2,89
"2022-02-06 00:37:00",9.6,7.9,0.0,0.0,0,1011.4,2,4,8.9,89
"2022-02-06 00:38:00",9.6,7.9,0.0,0.0,0,1011.3,1,3,"",89
"2022-02-06 00:39:00",9.6,7.9,0.0,0.0,0,1011.4,3,7,7.9,89
"2022-02-06 00:40:00",9.6,7.9,0.0,0.0,0,1011.4,3,5,8.5,89
"2022-02-06 00:41:00",9.6,7.9,0.0,0.0,0,1011.4,1,3,"",89
"2022-02-06 00:42:00",9.6,7.9,0.0,0.0,0,1011.3,1,3,"",89
"2022-02-06 00:43:00",9.6,7.9,0.0,0.0,0,1011.3,4,6,8.2,89
"2022-02-06 00:44:00",9.6,7.9,0.0,0.0,0,1011.2,2,3,"",89
"2022-02-06 00:45:00",9.6,7.9,0.0,0.0,0,1011.3,1,3,"",89
"2022-02-06 00:46:00",9.6,7.9,0.0,0.0,0,1011.3,1,2,"",89
"2022-02-06 00:47:00",9.6,7.9,0.0,0.0,0,1011.3,1,3,"",89
"2022-02-06 00:48:00",9.6,7.9,0.0,0.0,0,1011.2,1,3,"",89
"2022-02-06 00:49:00",9.6,7.9,0.0,0.0,0,1011.3,1,3,"",89
"2022-02-06 00:50:00",9.6,7.9,0.0,0.0,0,1011.2,4,8,7.7,89
"2022-02-06 00:51:00",9.6,7.9,0.0,0.0,0,1011.2,4,6,8.2,89
"2022-02-06 00:52:00",9.6,7.9,0.0,0.0,0,1011.2,3,5,8.5,89
"2022-02-06 00:53:00",9.6,7.9,0.0,0.0,0,1011.2,2,3,"",89
"2022-02-06 00:54:00",9.5,7.8,0.0,0.0,0,1011.2,4,7,7.9,89
"2022-02-06 00:55:00",9.5,7.8,0.0,0.0,0,1011.1,4,8,7.6,89
"2022-02-06 00:56:00",9.5,7.8,0.0,0.0,0,1011.2,1,2,"",89
"2022-02-06 00:57:00",9.5,7.8,0.0,0.0,0,1011.2,4,8,7.6,89
"2022-02-06 00:58:00",9.5,7.8,0.0,0.0,0,1011.2,4,9,7.4,89
"2022-02-06 00:59:00",9.5,7.9,0.0,0.0,0,1011.1,3,4,8.8,90
"2022-02-06 01:00:00",9.5,7.9,0.0,0.0,0,1011.2,2,5,8.4,90
"2022-02-06 01:01:00",9.5,7.9,0.0,0.0,0,1011.1,3,5,8.4,90
"2022-02-06 01:02:00",9.5,7.9,0.0,0.0,0,1011.0,2,4,8.8,90
"2022-02-06 01:03:00",9.5,7.9,0.0,0.0,0,1011.1,2,4,8.8,90
"2022-02-06 01:04:00",9.5,7.9,0.0,0.0,0,1011.1,2,5,8.4,90
"2022-02-06 01:05:00",9.4,7.8,0.0,0.0,0,1011.1,1,3,"",90
"2022-02-06 01:06:00",9.5,7.9,0.0,0.0,0,1011.1,2,3,"",90
"2022-02-06 01:07:00",9.5,7.9,0.0,0.0,0,1011.0,2,3,"",90
"2022-02-06 01:08:00",9.4,7.8,0.0,0.0,0,1011.0,2,4,8.7,90
"2022-02-06 01:09:00",9.4,7.8,0.0,0.0,0,1011.0,3,4,8.7,90
"2022-02-06 01:10:00",9.4,7.8,0.0,0.0,0,1011.0,2,4,8.7,90
"2022-02-06 01:11:00",9.4,7.8,0.0,0.0,0,1011.0,2,6,8.0,90
"2022-02-06 01:12:00",9.5,7.9,0.0,0.0,0,1010.9,3,5,8.4,90
"2022-02-06 01:13:00",9.4,7.8,0.0,0.0,0,1010.9,2,4,8.7,90
"2022-02-06 01:14:00",9.4,7.8,0.0,0.0,0,1010.9,2,4,8.7,90
"2022-02-06 01:15:00",9.4,7.8,0.0,0.0,0,1010.9,2,4,8.7,90
"2022-02-06 01:16:00",9.4,7.8,0.0,0.0,0,1010.8,3,6,8.0,90
"2022-02-06 01:17:00",9.4,7.8,0.0,0.0,0,1010.9,3,6,8.0,90
"2022-02-06 01:18:00",9.4,7.8,0.0,0.0,0,1010.9,4,6,8.0,90
"2022-02-06 01:19:00",9.4,7.8,0.0,0.0,0,1010.8,4,7,7.7,90
"2022-02-06 01:20:00",9.4,7.8,0.0,0.0,0,1010.8,2,3,"",90
"2022-02-06 01:21:00",9.4,7.8,0.0,0.0,0,1010.8,2,3,"",90
"2022-02-06 01:22:00",9.4,7.8,0.0,0.0,0,1010.8,1,2,"",90
"2022-02-06 01:23:00",9.4,7.8,0.0,0.0,0,1010.8,2,3,"",90
"2022-02-06 01:24:00",9.4,7.8,0.0,0.0,0,1010.8,4,8,7.5,90
"2022-02-06 01:25:00",9.4,7.8,0.0,0.0,0,1010.8,2,4,8.7,90
"2022-02-06 01:26:00",9.4,8.0,0.0,0.0,0,1010.9,2,3,"",91
"2022-02-06 01:27:00",9.4,8.0,0.0,0.0,0,1010.9,3,5,8.3,91
"2022-02-06 01:28:00",9.4,8.0,0.0,0.0,0,1010.8,2,4,8.6,91
"2022-02-06 01:29:00",9.4,8.0,0.0,0.0,0,1010.9,3,7,7.7,91
"2022-02-06 01:30:00",9.3,7.9,0.0,0.0,0,1010.8,2,4,8.7,91
"2022-02-06 01:31:00",9.3,7.9,0.0,0.0,0,1010.7,3,5,8.2,91
"2022-02-06 01:32:00",9.3,7.9,0.0,0.0,0,1010.7,3,5,8.2,91
"2022-02-06 01:33:00",9.3,7.9,0.0,0.0,0,1010.7,3,4,8.6,91
"2022-02-06 01:34:00",9.3,7.9,0.0,0.0,0,1010.7,3,6,7.9,91
"2022-02-06 01:35:00",9.3,7.9,0.0,0.0,0,1010.6,3,7,7.6,91
"2022-02-06 01:36:00",9.3,7.9,0.0,0.0,0,1010.6,1,3,"",91
"2022-02-06 01:37:00",9.3,7.9,0.0,0.0,0,1010.6,2,3,"",91
"2022-02-06 01:38:00",9.3,7.9,0.0,0.0,0,1010.5,2,4,8.6,91
"2022-02-06 01:39:00",9.3,7.9,0.0,0.0,0,1010.5,3,9,7.1,91
"2022-02-06 01:40:00",9.3,7.9,0.0,0.0,0,1010.5,2,4,8.6,91
"2022-02-06 01:41:00",9.3,7.9,0.0,0.0,0,1010.5,2,5,8.2,91
"2022-02-06 01:42:00",9.3,7.9,0.0,0.0,0,1010.6,2,4,8.6,91
"2022-02-06 01:43:00",9.3,7.9,0.0,0.0,0,1010.5,4,7,7.6,91
"2022-02-06 01:44:00",9.3,7.9,0.0,0.0,0,1010.7,5,7,7.6,91
"2022-02-06 01:45:00",9.3,7.9,0.0,0.0,0,1010.6,4,7,7.6,91
"2022-02-06 01:46:00",9.3,7.9,0.0,0.0,0,1010.6,2,4,8.6,91
"2022-02-06 01:47:00",9.3,7.9,0.0,0.0,0,1010.6,3,6,7.9,91
"2022-02-06 01:48:00",9.3,8.1,0.0,0.0,0,1010.6,3,5,8.2,92
"2022-02-06 01:49:00",9.3,8.1,0.0,0.0,0,1010.7,3,7,7.6,92
"2022-02-06 01:50:00",9.2,8.0,0.0,0.0,0,1010.6,3,5,8.2,92
"2022-02-06 01:51:00",9.2,8.0,0.0,0.0,0,1010.6,3,6,7.9,92
"2022-02-06 01:52:00",9.3,8.1,0.0,0.0,0,1010.6,3,7,7.5,92
"2022-02-06 01:53:00",9.2,8.0,0.0,0.0,0,1010.5,2,4,8.6,92
"2022-02-06 01:54:00",9.3,8.1,0.0,0.0,0,1010.6,2,3,"",92
"2022-02-06 01:55:00",9.3,8.1,0.0,0.0,0,1010.5,3,4,8.4,92
"2022-02-06 01:56:00",9.2,8.0,0.0,0.0,0,1010.5,3,5,8.1,92
"2022-02-06 01:57:00",9.2,8.0,0.2,0.0,0,1010.4,4,8,7.2,92
"2022-02-06 01:58:00",9.2,8.0,0.2,0.0,0,1010.6,3,6,7.7,92
"2022-02-06 01:59:00",9.2,8.0,0.2,0.0,0,1010.5,2,4,8.4,92
"2022-02-06 02:00:00",9.2,8.0,0.2,0.0,0,1010.5,2,5,8.1,92
"2022-02-06 02:01:00",9.2,8.0,0.2,0.0,0,1010.5,4,8,7.2,92
"2022-02-06 02:02:00",9.2,8.0,0.2,0.0,0,1010.6,2,4,8.4,92
"2022-02-06 02:03:00",9.2,8.0,0.2,0.0,0,1010.6,1,3,"",92
"2022-02-06 02:04:00",9.2,8.0,0.2,0.0,0,1010.5,1,2,"",92
"2022-02-06 02:05:00",9.2,8.0,0.2,0.0,0,1010.6,3,5,8.1,92
"2022-02-06 02:06:00",9.2,8.0,0.2,0.0,0,1010.5,2,3,"",92
"2022-02-06 02:07:00",9.2,8.0,0.2,0.0,0,1010.7,5,9,7.0,92
"2022-02-06 02:08:00",9.2,8.0,0.2,0.0,0,1010.4,2,4,8.4,92
"2022-02-06 02:09:00",9.2,8.0,0.2,0.0,0,1010.5,3,5,8.1,92
"2022-02-06 02:10:00",9.2,8.0,0.2,0.0,0,1010.5,3,5,8.1,92
"2022-02-06 02:11:00",9.2,8.0,0.2,0.0,0,1010.6,2,7,7.5,92
"2022-02-06 02:12:00",9.2,8.0,0.2,0.0,0,1010.5,2,3,"",92
"2022-02-06 02:13:00",9.2,8.0,0.2,0.0,0,1010.5,2,4,8.4,92
"2022-02-06 02:14:00",9.1,7.9,0.2,0.0,0,1010.5,1,3,"",92
"2022-02-06 02:15:00",9.2,8.0,0.2,0.0,0,1010.5,2,3,"",92
"2022-02-06 02:16:00",9.2,8.0,0.2,0.0,0,1010.5,3,7,7.3,92
"2022-02-06 02:17:00",9.2,8.0,0.2,0.0,0,1010.5,2,4,8.4,92
"2022-02-06 02:18:00",9.2,8.0,0.2,0.0,0,1010.6,2,4,8.3,92
"2022-02-06 02:19:00",9.1,7.9,0.2,0.0,0,1010.5,3,4,8.3,92
"2022-02-06 02:20:00",9.2,8.0,0.2,0.0,0,1010.5,2,4,8.3,92
"2022-02-06 02:21:00",9.1,7.9,0.2,0.0,0,1010.4,2,3,"",92
"2022-02-06 02:22:00",9.1,7.9,0.2,0.0,0,1010.4,2,4,8.3,92
"2022-02-06 02:23:00",9.1,7.9,0.2,0.0,0,1010.4,1,5,8.1,92
"2022-02-06 02:24:00",9.2,8.0,0.2,0.0,0,1010.4,2,4,8.3,92
"2022-02-06 02:25:00",9.1,7.9,0.2,0.0,0,1010.3,2,4,8.3,92
"2022-02-06 02:26:00",9.1,7.9,0.2,0.0,0,1010.3,1,2,"",92
"2022-02-06 02:27:00",9.1,7.9,0.2,0.0,0,1010.2,1,3,"",92
"2022-02-06 02:28:00",9.1,7.9,0.2,0.0,0,1010.2,1,3,"",92
"2022-02-06 02:29:00",9.1,7.9,0.2,0.0,0,1010.2,3,6,7.6,92
"2022-02-06 02:30:00",9.1,7.9,0.4,0.0,0,1010.2,3,4,8.3,92
"2022-02-06 02:31:00",9.1,7.9,0.4,0.0,0,1010.2,1,3,"",92
"2022-02-06 02:32:00",9.1,8.0,0.4,0.0,0,1010.2,3,5,7.9,93
"2022-02-06 02:33:00",9.1,8.0,0.4,0.0,0,1010.2,1,3,"",93
"2022-02-06 02:34:00",9.1,8.0,0.4,0.0,0,1010.2,2,4,8.3,93
"2022-02-06 02:35:00",9.1,8.0,0.4,0.0,0,1010.1,2,4,8.3,93
"2022-02-06 02:36:00",9.1,8.0,0.4,0.0,0,1010.1,1,2,"",93
"2022-02-06 02:37:00",9.1,8.0,0.4,0.0,0,1010.0,1,3,"",93
"2022-02-06 02:38:00",9.1,8.0,0.4,0.0,0,1010.1,1,4,8.3,93
"2022-02-06 02:39:00",9.1,8.0,0.4,0.0,0,1010.1,1,3,"",93
"2022-02-06 02:40:00",9.1,8.0,0.4,0.0,0,1010.0,2,4,8.3,93
"2022-02-06 02:41:00",9.1,8.0,0.4,0.0,0,1010.0,3,4,8.3,93
"2022-02-06 02:42:00",9.1,8.0,0.4,0.0,0,1009.9,1,3,"",93
"2022-02-06 02:43:00",9.1,8.0,0.4,0.0,0,1010.0,1,3,"",93
"2022-02-06 02:44:00",9.1,8.0,0.4,0.0,0,1010.1,2,3,"",93
"2022-02-06 02:45:00",9.1,8.0,0.4,0.0,0,1010.0,2,3,"",93
"2022-02-06 02:46:00",9.1,8.0,0.4,0.0,0,1010.0,2,2,"",93
"2022-02-06 02:47:00",9.1,8.0,0.4,0.0,0,1010.0,2,3,"",93
"2022-02-06 02:48:00",9.1,8.0,0.4,0.0,0,1009.9,2,4,8.3,93
"2022-02-06 02:49:00",9.1,8.0,0.4,0.0,0,1009.9,3,6,7.5,93
"2022-02-06 02:50:00",9.1,8.0,0.4,0.0,0,1009.9,2,4,8.3,93
"2022-02-06 02:51:00",9.1,8.0,0.4,0.0,0,1009.8,3,5,7.9,93
"2022-02-06 02:52:00",9.1,8.0,0.4,0.0,0,1009.8,2,5,7.8,93
"2022-02-06 02:53:00",9.0,7.9,0.4,0.0,0,1009.8,3,5,7.9,93
"2022-02-06 02:54:00",9.0,7.9,0.4,0.0,0,1009.7,4,6,7.6,93
"2022-02-06 02:55:00",9.0,7.9,0.4,0.0,0,1009.7,3,4,8.3,93
"2022-02-06 02:56:00",9.1,8.0,0.4,0.0,0,1009.6,2,5,7.8,93
"2022-02-06 02:57:00",9.1,8.0,0.4,0.0,0,1009.6,4,6,7.5,93
"2022-02-06 02:58:00",9.1,8.0,0.4,0.0,0,1009.6,2,5,7.8,93
"2022-02-06 02:59:00",9.0,7.9,0.4,0.0,0,1009.5,2,4,8.2,93
"2022-02-06 03:00:00",9.1,8.0,0.4,0.0,0,1009.4,3,4,8.2,93
"2022-02-06 03:01:00",9.0,7.9,0.4,0.0,0,1009.3,1,4,8.2,93
"2022-02-06 03:02:00",9.1,8.0,0.4,0.0,0,1009.4,2,3,"",93
"2022-02-06 03:03:00",9.1,8.0,0.4,0.0,0,1009.4,2,5,7.9,93
"2022-02-06 03:04:00",9.1,8.2,0.4,0.0,0,1009.4,2,4,8.3,94
"2022-02-06 03:05:00",9.0,8.1,0.4,0.0,0,1009.4,2,5,7.8,94
"2022-02-06 03:06:00",9.1,8.2,0.4,0.0,0,1009.3,3,4,8.2,94
"2022-02-06 03:07:00",9.0,8.1,0.4,0.0,0,1009.2,2,4,8.2,94
"2022-02-06 03:08:00",9.0,7.9,0.4,0.0,0,1009.3,1,4,8.2,93
"2022-02-06 03:09:00",9.0,7.9,0.4,0.0,0,1009.2,3,5,7.8,93
"2022-02-06 03:10:00",9.0,8.1,0.4,0.0,0,1009.2,2,4,8.1,94
"2022-02-06 03:11:00",9.0,8.1,0.4,0.0,0,1009.2,2,4,8.2,94
"2022-02-06 03:12:00",9.0,8.1,0.4,0.0,0,1009.2,2,3,"",94
"2022-02-06 03:13:00",9.1,8.2,0.4,0.0,0,1009.2,2,5,7.9,94
"2022-02-06 03:14:00",9.0,8.1,0.4,0.0,0,1009.1,3,4,8.2,94
"2022-02-06 03:15:00",9.0,8.1,0.4,0.0,0,1009.1,2,6,7.6,94
"2022-02-06 03:16:00",9.0,8.1,0.4,0.0,0,1009.2,2,4,8.2,94
"2022-02-06 03:17:00",9.0,8.1,0.4,0.0,0,1009.1,3,6,7.6,94
"2022-02-06 03:18:00",9.0,8.1,0.4,0.0,0,1009.1,3,5,7.8,94
"2022-02-06 03:19:00",9.0,8.1,0.4,0.0,0,1009.1,3,5,7.8,94
"2022-02-06 03:20:00",9.0,8.1,0.4,0.0,0,1009.1,2,4,8.2,94
"2022-02-06 03:21:00",9.0,8.1,0.6,0.0,0,1009.1,1,3,"",94
"2022-02-06 03:22:00",9.0,8.1,0.6,0.0,0,1009.2,2,3,"",94
"2022-02-06 03:23:00",9.1,8.2,0.6,0.0,0,1009.1,5,12,6.2,94
"2022-02-06 03:24:00",9.0,8.1,0.6,0.0,0,1009.0,4,7,7.2,94
"2022-02-06 03:25:00",9.0,8.1,0.6,0.0,0,1009.0,3,4,8.2,94
"2022-02-06 03:26:00",9.1,8.2,0.6,0.0,0,1008.9,3,6,7.5,94
"2022-02-06 03:27:00",9.0,8.1,0.6,0.0,0,1009.0,3,5,7.8,94
"2022-02-06 03:28:00",9.0,8.1,0.6,0.0,0,1009.0,2,5,7.8,94
"2022-02-06 03:29:00",9.0,8.1,0.6,0.0,0,1009.0,3,4,8.2,94
"2022-02-06 03:30:00",9.0,8.1,0.6,0.0,0,1009.1,2,4,8.2,94
"2022-02-06 03:31:00",9.1,8.2,0.6,0.0,0,1008.9,3,7,7.2,94
"2022-02-06 03:32:00",9.1,8.2,0.6,0.0,0,1008.8,4,8,7.1,94
"2022-02-06 03:33:00",9.0,8.1,0.6,0.0,0,1008.7,2,5,7.8,94
"2022-02-06 03:34:00",9.0,8.1,0.6,0.0,0,1008.7,2,4,8.2,94
"2022-02-06 03:35:00",9.0,8.1,0.6,0.0,0,1008.7,2,4,8.2,94
"2022-02-06 03:36:00",9.0,8.1,0.6,0.0,0,1008.8,2,3,"",94
"2022-02-06 03:37:00",9.0,8.1,0.6,0.0,0,1008.8,3,5,7.8,94
"2022-02-06 03:38:00",9.0,8.1,0.6,0.0,0,1008.7,2,3,"",94
"2022-02-06 03:39:00",9.0,8.1,0.6,0.0,0,1008.6,2,6,7.5,94
"2022-02-06 03:40:00",9.1,8.2,0.6,0.0,0,1008.6,2,4,8.2,94
"2022-02-06 03:41:00",9.0,8.1,0.6,0.0,0,1008.7,2,5,7.8,94
"2022-02-06 03:42:00",9.0,8.1,0.6,0.0,0,1008.7,2,4,8.2,94
"2022-02-06 03:43:00",9.1,8.2,0.6,0.0,0,1008.7,3,5,7.8,94
"2022-02-06 03:44:00",9.0,8.1,0.6,0.0,0,1008.7,2,5,7.9,94
"2022-02-06 03:45:00",9.0,8.1,0.6,0.0,0,1008.8,2,3,"",94
"2022-02-06 03:46:00",9.0,8.1,0.6,0.0,0,1008.8,2,4,8.3,94
"2022-02-06 03:47:00",9.1,8.2,0.6,0.0,0,1008.7,1,3,"",94
"2022-02-06 03:48:00",9.0,8.1,0.6,0.0,0,1008.6,3,4,8.2,94
"2022-02-06 03:49:00",9.1,8.2,0.6,0.0,0,1008.6,2,4,8.2,94
"2022-02-06 03:50:00",9.1,8.2,0.6,0.0,0,1008.6,2,4,8.2,94
"2022-02-06 03:51:00",9.0,8.1,0.8,0.0,0,1008.5,2,4,8.2,94
"2022-02-06 03:52:00",9.0,8.1,0.8,0.0,0,1008.4,1,3,"",94
"2022-02-06 03:53:00",9.0,8.1,0.8,0.0,0,1008.4,3,4,8.2,94
"2022-02-06 03:54:00",9.0,8.1,0.8,0.0,0,1008.4,2,6,7.5,94
"2022-02-06 03:55:00",9.0,8.1,0.8,0.0,0,1008.4,3,6,7.6,94
"2022-02-06 03:56:00",9.0,8.1,0.8,0.0,0,1008.4,2,4,8.2,94
"2022-02-06 03:57:00",9.0,8.1,0.8,0.0,0,1008.5,2,5,7.8,94
"2022-02-06 03:58:00",9.0,8.1,0.8,0.0,0,1008.4,2,8,7.0,94
"2022-02-06 03:59:00",9.1,8.2,0.8,0.0,0,1008.4,3,5,7.8,94
"2022-02-06 04:00:00",9.0,8.1,0.8,0.0,0,1008.3,3,4,8.2,94
"2022-02-06 04:01:00",9.0,8.1,0.8,0.0,0,1008.2,4,10,6.5,94
"2022-02-06 04:02:00",9.0,8.1,0.8,0.0,0,1008.2,2,4,8.2,94
"2022-02-06 04:03:00",9.0,8.1,0.8,0.0,0,1008.1,2,5,7.8,94
"2022-02-06 04:04:00",9.0,8.1,0.8,0.0,0,1008.2,2,3,"",94
"2022-02-06 04:05:00",9.0,8.1,0.8,0.0,0,1008.2,2,4,8.2,94
"2022-02-06 04:06:00",9.1,8.2,0.8,0.0,0,1008.1,3,7,7.2,94
"2022-02-06 04:07:00",9.0,8.1,0.8,0.0,0,1008.1,5,13,6.1,94
"2022-02-06 04:08:00",9.0,8.2,0.8,0.0,0,1008.0,4,7,7.2,95
"2022-02-06 04:09:00",9.1,8.3,0.8,0.0,0,1008.1,2,4,8.3,95
"2022-02-06 04:10:00",9.1,8.3,0.8,0.0,0,1008.1,3,5,7.8,95
"2022-02-06 04:11:00",9.1,8.3,0.8,0.0,0,1008.1,3,5,7.9,95
"2022-02-06 04:12:00",9.1,8.3,0.8,0.0,0,1008.1,2,4,8.3,95
"2022-02-06 04:13:00",9.1,8.3,0.8,0.0,0,1008.0,2,4,8.2,95
"2022-02-06 04:14:00",9.0,8.2,0.8,0.0,0,1007.9,2,5,7.8,95
"2022-02-06 04:15:00",9.1,8.3,1.0,0.0,0,1007.9,3,5,7.8,95
"2022-02-06 04:16:00",9.1,8.2,1.0,0.0,0,1007.9,2,3,"",94
"2022-02-06 04:17:00",9.0,8.2,1.0,0.0,0,1007.9,3,6,7.6,95
"2022-02-06 04:18:00",9.1,8.3,1.0,0.0,0,1007.8,2,5,7.9,95
"2022-02-06 04:19:00",9.1,8.3,1.0,0.0,0,1007.8,3,4,8.3,95
"2022-02-06 04:20:00",9.1,8.3,1.0,0.0,0,1007.7,2,5,7.9,95
"2022-02-06 04:21:00",9.0,8.2,1.0,0.0,0,1007.7,3,7,7.2,95
"2022-02-06 04:22:00",9.0,8.2,1.0,0.0,0,1007.7,4,9,6.7,95
"2022-02-06 04:23:00",9.1,8.3,1.0,0.0,0,1007.8,2,3,"",95
"2022-02-06 04:24:00",9.1,8.3,1.0,0.0,0,1007.7,1,3,"",95
"2022-02-06 04:25:00",9.1,8.3,1.0,0.0,0,1007.8,5,9,6.7,95
"2022-02-06 04:26:00",9.1,8.3,1.0,0.0,0,1007.8,4,7,7.2,95
"2022-02-06 04:27:00",9.1,8.3,1.0,0.0,0,1007.8,2,6,7.6,95
"2022-02-06 04:28:00",9.1,8.3,1.0,0.0,0,1007.7,2,4,8.3,95
"2022-02-06 04:29:00",9.1,8.3,1.0,0.0,0,1007.6,2,4,8.3,95
"2022-02-06 04:30:00",9.0,8.2,1.0,0.0,0,1007.6,2,3,"",95
"2022-02-06 04:31:00",9.1,8.3,1.0,0.0,0,1007.5,2,4,8.3,95
"2022-02-06 04:32:00",9.1,8.3,1.0,0.0,0,1007.5,3,7,7.3,95
"2022-02-06 04:33:00",9.1,8.3,1.0,0.0,0,1007.6,3,5,7.9,95
"2022-02-06 04:34:00",9.1,8.3,1.0,0.0,0,1007.6,2,5,7.8,95
"2022-02-06 04:35:00",9.1,8.3,1.0,0.0,0,1007.5,2,4,8.2,95
"2022-02-06 04:36:00",9.1,8.3,1.0,0.0,0,1007.6,4,6,7.5,95
"2022-02-06 04:37:00",9.0,8.2,1.0,0.0,0,1007.5,2,4,8.3,95
"2022-02-06 04:38:00",9.1,8.3,1.0,0.0,0,1007.5,2,6,7.6,95
"2022-02-06 04:39:00",9.1,8.3,1.0,0.0,0,1007.4,4,12,6.3,95
"2022-02-06 04:40:00",9.1,8.3,1.0,0.0,0,1007.5,2,3,"",95
"2022-02-06 04:41:00",9.1,8.3,1.0,0.0,0,1007.5,4,14,6.0,95
"2022-02-06 04:42:00",9.1,8.3,1.2,0.0,0,1007.3,5,17,5.6,95
"2022-02-06 04:43:00",9.1,8.3,1.2,0.0,0,1007.4,3,5,7.9,95
"2022-02-06 04:44:00",9.1,8.3,1.2,0.0,0,1007.4,3,6,7.6,95
"2022-02-06 04:45:00",9.1,8.3,1.2,0.0,0,1007.4,3,6,7.6,95
"2022-02-06 04:46:00",9.1,8.3,1.2,0.0,0,1007.3,4,8,7.1,95
"2022-02-06 04:47:00",9.1,8.3,1.2,0.0,0,1007.3,4,7,7.3,95
"2022-02-06 04:48:00",9.1,8.3,1.2,0.0,0,1007.2,2,3,"",95
"2022-02-06 04:49:00",9.1,8.3,1.2,0.0,0,1007.2,2,4,8.3,95
"2022-02-06 04:50:00",9.1,8.3,1.2,0.0,0,1007.3,5,11,6.5,95
"2022-02-06 04:51:00",9.1,8.3,1.2,0.0,0,1007.2,4,10,6.7,95
"2022-02-06 04:52:00",9.1,8.3,1.2,0.0,0,1007.3,4,10,6.7,95
"2022-02-06 04:53:00",9.1,8.3,1.2,0.0,0,1007.2,2,4,8.3,95
"2022-02-06 04:54:00",9.1,8.3,1.2,0.0,0,1007.2,3,7,7.3,95
"2022-02-06 04:55:00",9.1,8.3,1.2,0.0,0,1007.0,4,7,7.3,95
"2022-02-06 04:56:00",9.0,8.2,1.2,0.0,0,1007.1,3,5,7.9,95
"2022-02-06 04:57:00",9.1,8.3,1.2,0.0,0,1007.0,2,4,8.3,95
"2022-02-06 04:58:00",9.1,8.3,1.2,0.0,0,1006.9,3,8,7.1,95
"2022-02-06 04:59:00",9.1,8.3,1.2,0.0,0,1007.1,4,6,7.6,95
"2022-02-06 05:00:00",9.1,8.3,1.2,0.0,0,1007.1,2,4,8.3,95
"2022-02-06 05:01:00",9.1,8.3,1.2,0.0,0,1007.0,3,5,7.9,95
"2022-02-06 05:02:00",9.1,8.3,1.2,0.0,0,1007.0,2,5,7.9,95
"2022-02-06 05:03:00",9.1,8.3,1.2,0.0,0,1007.0,3,5,7.9,95
"2022-02-06 05:04:00",9.0,8.2,1.2,0.0,0,1006.9,4,6,7.6,95
"2022-02-06 05:05:00",9.0,8.2,1.2,0.0,0,1006.9,2,4,8.2,95
"2022-02-06 05:06:00",9.1,8.3,1.2,0.0,0,1006.9,2,6,7.6,95
"2022-02-06 05:07:00",9.1,8.3,1.2,0.0,0,1006.9,4,9,6.9,95
"2022-02-06 05:08:00",9.1,8.3,1.2,0.0,0,1006.8,3,5,7.9,95
"2022-02-06 05:09:00",9.1,8.3,1.2,0.0,0,1006.8,5,11,6.5,95
"2022-02-06 05:10:00",9.1,8.3,1.2,0.0,0,1006.7,5,6,7.6,95
"2022-02-06 05:11:00",9.1,8.3,1.2,0.0,0,1006.8,2,4,8.2,95
"2022-02-06 05:12:00",9.1,8.3,1.2,0.0,0,1006.6,2,3,"",95
"2022-02-06 05:13:00",9.1,8.3,1.2,0.0,0,1006.6,2,4,8.3,95
"2022-02-06 05:14:00",9.1,8.3,1.2,0.0,0,1006.7,3,5,7.9,95
"2022-02-06 05:15:00",9.1,8.3,1.2,0.0,0,1006.6,3,5,7.9,95
"2022-02-06 05:16:00",9.1,8.3,1.2,0.0,0,1006.6,4,6,7.6,95
"2022-02-06 05:17:00",9.1,8.3,1.2,0.0,0,1006.6,3,5,7.9,95
"2022-02-06 05:18:00",9.1,8.3,1.2,0.0,0,1006.5,3,5,7.8,95
"2022-02-06 05:19:00",9.1,8.3,1.2,0.0,0,1006.5,3,5,7.9,95
"2022-02-06 05:20:00",9.1,8.3,1.2,0.0,0,1006.5,6,15,5.9,95
"2022-02-06 05:21:00",9.1,8.3,1.2,0.0,0,1006.5,4,5,7.8,95
"2022-02-06 05:22:00",9.1,8.3,1.2,0.0,0,1006.5,4,6,7.5,95
"2022-02-06 05:23:00",9.1,8.3,1.2,0.0,0,1006.4,4,9,6.9,95
"2022-02-06 05:24:00",9.1,8.3,1.2,0.0,0,1006.5,3,6,7.6,95
"2022-02-06 05:25:00",9.1,8.3,1.4,0.0,0,1006.5,3,6,7.6,95
"2022-02-06 05:26:00",9.1,8.3,1.4,0.0,0,1006.6,3,6,7.6,95
"2022-02-06 05:27:00",9.1,8.3,1.4,0.0,0,1006.4,4,7,7.3,95
"2022-02-06 05:28:00",9.1,8.3,1.4,0.0,0,1006.3,2,5,7.9,95
"2022-02-06 05:29:00",9.1,8.3,1.4,0.0,0,1006.4,1,4,8.3,95
"2022-02-06 05:30:00",9.1,8.3,1.4,0.0,0,1006.4,2,4,8.3,95
"2022-02-06 05:31:00",9.1,8.3,1.4,0.0,0,1006.3,4,7,7.3,95
"2022-02-06 05:32:00",9.1,8.3,1.4,0.0,0,1006.3,2,5,7.9,95
"2022-02-06 05:33:00",9.1,8.3,1.4,0.0,0,1006.2,3,5,7.9,95
"2022-02-06 05:34:00",9.1,8.3,1.4,0.0,0,1006.3,4,7,7.3,95
"2022-02-06 05:35:00",9.1,8.3,1.4,0.0,0,1006.3,4,7,7.3,95
"2022-02-06 05:36:00",9.1,8.3,1.4,0.0,0,1006.2,3,8,7.1,95
"2022-02-06 05:37:00",9.1,8.3,1.4,0.0,0,1006.2,2,3,"",95
"2022-02-06 05:38:00",9.1,8.3,1.4,0.0,0,1006.3,2,4,8.3,95
"2022-02-06 05:39:00",9.1,8.3,1.4,0.0,0,1006.2,3,5,7.9,95
"2022-02-06 05:40:00",9.1,8.3,1.4,0.0,0,1006.2,3,7,7.3,95
"2022-02-06 05:41:00",9.1,8.3,1.4,0.0,0,1006.1,3,6,7.6,95
"2022-02-06 05:42:00",9.1,8.3,1.6,0.0,0,1006.1,2,4,8.3,95
"2022-02-06 05:43:00",9.1,8.3,1.6,0.0,0,1006.1,3,5,7.9,95
"2022-02-06 05:44:00",9.1,8.3,1.6,0.0,0,1006.2,4,7,7.3,95
"2022-02-06 05:45:00",9.1,8.3,1.6,0.0,0,1006.0,3,6,7.6,95
"2022-02-06 05:46:00",9.1,8.3,1.6,0.0,0,1006.1,2,7,7.3,95
"2022-02-06 05:47:00",9.1,8.3,1.6,0.0,0,1006.0,2,5,7.9,95
"2022-02-06 05:48:00",9.1,8.3,1.6,0.0,0,1006.0,3,5,7.9,95
"2022-02-06 05:49:00",9.1,8.3,1.6,0.0,0,1005.9,2,4,8.3,95
"2022-02-06 05:50:00",9.1,8.3,1.6,0.0,0,1005.8,3,7,7.3,95
"2022-02-06 05:51:00",9.1,8.3,1.6,0.0,0,1005.9,2,4,8.3,95
"2022-02-06 05:52:00",9.1,8.3,1.6,0.0,0,1005.8,3,5,7.9,95
"2022-02-06 05:53:00",9.1,8.3,1.6,0.0,0,1005.9,5,8,7.1,95
"2022-02-06 05:54:00",9.1,8.3,1.6,0.0,0,1005.9,5,10,6.7,95
"2022-02-06 05:55:00",9.1,8.3,1.6,0.0,0,1005.8,5,8,7.1,95
"2022-02-06 05:56:00",9.1,8.3,1.6,0.0,0,1005.7,6,10,6.7,95
"2022-02-06 05:57:00",9.1,8.5,1.6,0.0,0,1005.8,2,4,8.3,96
"2022-02-06 05:58:00",9.1,8.3,1.6,0.0,0,1005.8,2,5,7.9,95
"2022-02-06 05:59:00",9.1,8.5,1.6,0.0,0,1005.8,3,4,8.3,96
"2022-02-06 06:00:00",9.1,8.3,1.6,0.0,0,1005.7,2,5,7.9,95
"2022-02-06 06:01:00",9.1,8.5,1.6,0.0,0,1005.7,3,5,7.9,96
"2022-02-06 06:02:00",9.1,8.5,1.6,0.0,0,1005.6,4,8,7.1,96
"2022-02-06 06:03:00",9.1,8.5,1.6,0.0,0,1005.7,4,8,7.1,96
"2022-02-06 06:04:00",9.1,8.5,1.6,0.0,0,1005.7,3,5,7.9,96
"2022-02-06 06:05:00",9.1,8.5,1.6,0.0,0,1005.6,2,5,7.9,96
"2022-02-06 06:06:00",9.1,8.5,1.6,0.0,0,1005.7,4,5,7.9,96
"2022-02-06 06:07:00",9.1,8.5,1.8,0.0,0,1005.6,4,5,7.9,96
"2022-02-06 06:08:00",9.1,8.5,1.8,0.0,0,1005.7,3,5,7.9,96
"2022-02-06 06:09:00",9.1,8.5,1.8,0.0,0,1005.6,2,4,8.3,96
"2022-02-06 06:10:00",9.1,8.5,1.8,0.0,0,1005.6,2,4,8.3,96
"2022-02-06 06:11:00",9.1,8.5,1.8,0.0,0,1005.6,3,7,7.3,96
"2022-02-06 06:12:00",9.1,8.5,1.8,0.0,0,1005.5,4,9,6.9,96
"2022-02-06 06:13:00",9.1,8.5,1.8,0.0,0,1005.5,2,4,8.3,96
"2022-02-06 06:14:00",9.1,8.5,1.8,0.0,0,1005.6,4,7,7.3,96
"2022-02-06 06:15:00",9.1,8.5,1.8,0.0,0,1005.5,6,10,6.7,96
"2022-02-06 06:16:00",9.2,8.6,1.8,0.0,0,1005.5,3,8,7.1,96
"2022-02-06 06:17:00",9.2,8.6,1.8,0.0,0,1005.5,2,3,"",96
"2022-02-06 06:18:00",9.2,8.6,1.8,0.0,0,1005.6,4,6,7.7,96
"2022-02-06 06:19:00",9.1,8.5,1.8,0.0,0,1005.5,3,4,8.4,96
"2022-02-06 06:20:00",9.1,8.5,2.0,0.0,0,1005.4,2,3,"",96
"2022-02-06 06:21:00",9.2,8.6,2.0,0.0,0,1005.5,3,5,8.1,96
"2022-02-06 06:22:00",9.2,8.6,2.0,0.0,0,1005.4,2,3,"",96
"2022-02-06 06:23:00",9.2,8.6,2.0,0.0,0,1005.4,2,5,8.1,96
"2022-02-06 06:24:00",9.2,8.6,2.0,0.0,0,1005.4,2,4,8.4,96
"2022-02-06 06:25:00",9.2,8.6,2.0,0.0,0,1005.3,2,4,8.4,96
"2022-02-06 06:26:00",9.2,8.6,2.0,0.0,0,1005.3,2,5,8.1,96
"2022-02-06 06:27:00",9.2,8.6,2.0,0.0,0,1005.2,3,8,7.2,96
"2022-02-06 06:28:00",9.2,8.6,2.0,0.0,0,1005.3,5,11,6.6,96
"2022-02-06 06:29:00",9.2,8.6,2.0,0.0,0,1005.2,3,5,7.9,96
"2022-02-06 06:30:00",9.2,8.6,2.0,0.0,0,1005.2,3,6,7.6,96
"2022-02-06 06:31:00",9.2,8.6,2.0,0.0,0,1005.2,4,6,7.7,96
"2022-02-06 06:32:00",9.2,8.6,2.0,0.0,0,1005.2,2,4,8.4,96
"2022-02-06 06:33:00",9.2,8.6,2.0,0.0,0,1005.1,3,5,8.1,96
"2022-02-06 06:34:00",9.2,8.6,2.0,0.0,0,1005.0,3,7,7.5,96
"2022-02-06 06:35:00",9.2,8.6,2.0,0.0,0,1005.0,6,9,7.0,96
"2022-02-06 06:36:00",9.2,8.6,2.2,0.0,0,1004.9,3,7,7.5,96
"2022-02-06 06:37:00",9.2,8.6,2.2,0.0,0,1004.9,3,4,8.4,96
"2022-02-06 06:38:00",9.2,8.6,2.2,0.0,0,1004.9,2,5,8.1,96
"2022-02-06 06:39:00",9.2,8.6,2.2,0.0,0,1004.8,3,5,8.1,96
"2022-02-06 06:40:00",9.2,8.6,2.2,0.0,0,1004.8,3,6,7.7,96
"2022-02-06 06:41:00",9.2,8.6,2.2,0.0,0,1005.0,3,7,7.5,96
"2022-02-06 06:42:00",9.2,8.6,2.2,0.0,0,1004.9,3,6,7.7,96
"2022-02-06 06:43:00",9.2,8.6,2.2,0.0,0,1004.8,2,5,8.1,96
"2022-02-06 06:44:00",9.2,8.6,2.2,0.0,0,1004.6,3,5,8.1,96
"2022-02-06 06:45:00",9.2,8.6,2.2,0.0,0,1004.6,2,4,8.4,96
"2022-02-06 06:46:00",9.2,8.6,2.2,0.0,0,1004.6,2,5,8.1,96
"2022-02-06 06:47:00",9.2,8.6,2.2,0.0,0,1004.6,2,4,8.4,96
"2022-02-06 06:48:00",9.2,8.6,2.2,0.0,0,1004.7,2,5,8.1,96
"2022-02-06 06:49:00",9.2,8.6,2.4,0.0,0,1004.5,4,5,8.1,96
"2022-02-06 06:50:00",9.2,8.6,2.4,0.0,0,1004.5,5,6,7.7,96
"2022-02-06 06:51:00",9.2,8.6,2.4,0.0,0,1004.5,2,5,8.1,96
"2022-02-06 06:52:00",9.2,8.6,2.4,0.0,0,1004.5,3,7,7.5,96